Time,TemperatureF,DewpointF,PressureIn,WindDirection,WindDirectionDegrees,WindSpeedMPH,WindSpeedGustMPH,Humidity,HourlyPrecipIn,Conditions,Clouds,dailyrainin,SoftwareType,DateUTC
2013-01-20 00:00:00,26.4,18.3,30.40,NNE,26,9.0,9.0,71,0.00,,,0.00,Wunderground v.1.15,2013-01-20 06:00:00,
2013-01-20 00:05:00,26.1,16.3,30.40,North,9,10.0,10.0,66,0.00,,,0.00,Wunderground v.1.15,2013-01-20 06:05:00,
2013-01-20 00:10:00,25.8,15.6,30.40,North,355,9.0,9.0,65,0.00,,,0.00,Wunderground v.1.15,2013-01-20 06:10:00,
2013-01-20 00:15:00,25.6,16.5,30.41,NNE,26,8.0,9.0,68,0.00,,,0.00,Wunderground v.1.15,2013-01-20 06:15:00,
2013-01-20 00:25:00,25.3,15.9,30.40,NNE,25,9.0,10.0,67,0.00,,,0.00,Wunderground v.1.15,2013-01-20 06:25:00,
2013-01-20 00:30:00,25.1,16.0,30.40,NNE,27,11.0,14.0,68,0.00,,,0.00,Wunderground v.1.15,2013-01-20 06:30:00,
2013-01-20 00:35:00,25.0,15.6,30.40,NNE,26,9.0,14.0,67,0.00,,,0.00,Wunderground v.1.15,2013-01-20 06:35:00,
2013-01-20 00:40:00,24.8,15.4,30.40,NNE,26,9.0,11.0,67,0.00,,,0.00,Wunderground v.1.15,2013-01-20 06:40:00,
2013-01-20 00:45:00,24.7,15.6,30.40,NE,40,9.0,11.0,68,0.00,,,0.00,Wunderground v.1.15,2013-01-20 06:45:00,
2013-01-20 00:50:00,24.4,15.0,30.39,North,10,8.0,8.0,67,0.00,,,0.00,Wunderground v.1.15,2013-01-20 06:50:00,
2013-01-20 01:00:00,24.2,14.5,30.39,NE,40,10.0,10.0,66,0.00,,,0.00,Wunderground v.1.15,2013-01-20 07:00:00,
2013-01-20 01:05:00,24.2,15.2,30.39,NNE,23,9.0,10.0,68,0.00,,,0.00,Wunderground v.1.15,2013-01-20 07:05:00,
2013-01-20 01:10:00,24.1,14.7,30.39,NNE,27,9.0,9.0,67,0.00,,,0.00,Wunderground v.1.15,2013-01-20 07:10:00,
2013-01-20 01:15:00,24.0,15.3,30.39,NNE,22,7.0,9.0,69,0.00,,,0.00,Wunderground v.1.15,2013-01-20 07:15:00,
2013-01-20 01:20:00,23.9,15.2,30.40,NE,40,7.0,9.0,69,0.00,,,0.00,Wunderground v.1.15,2013-01-20 07:20:00,
2013-01-20 01:30:00,23.6,15.2,30.39,NNE,24,7.0,10.0,70,0.00,,,0.00,Wunderground v.1.15,2013-01-20 07:30:00,
2013-01-20 01:35:00,23.6,15.6,30.39,NNE,24,7.0,10.0,71,0.00,,,0.00,Wunderground v.1.15,2013-01-20 07:35:00,
2013-01-20 01:40:00,23.5,15.8,30.39,NNE,22,8.0,8.0,72,0.00,,,0.00,Wunderground v.1.15,2013-01-20 07:40:00,
2013-01-20 01:45:00,23.5,15.8,30.39,NNE,26,8.0,8.0,72,0.00,,,0.00,Wunderground v.1.15,2013-01-20 07:45:00,
2013-01-20 01:50:00,23.4,16.0,30.39,NNE,24,7.0,7.0,73,0.00,,,0.00,Wunderground v.1.15,2013-01-20 07:50:00,
2013-01-20 01:55:00,23.3,15.6,30.38,NE,44,8.0,9.0,72,0.00,,,0.00,Wunderground v.1.15,2013-01-20 07:55:00,
2013-01-20 02:05:00,23.1,14.4,30.39,NE,37,7.0,8.0,69,0.00,,,0.00,Wunderground v.1.15,2013-01-20 08:05:00,
2013-01-20 02:10:00,23.0,14.7,30.39,NNE,33,6.0,6.0,70,0.00,,,0.00,Wunderground v.1.15,2013-01-20 08:10:00,
2013-01-20 02:15:00,22.9,15.2,30.39,NNE,25,6.0,9.0,72,0.00,,,0.00,Wunderground v.1.15,2013-01-20 08:15:00,
2013-01-20 02:20:00,22.8,15.4,30.39,NNE,29,6.0,6.0,73,0.00,,,0.00,Wunderground v.1.15,2013-01-20 08:20:00,
2013-01-20 02:25:00,22.6,15.9,30.39,NE,46,5.0,7.0,75,0.00,,,0.00,Wunderground v.1.15,2013-01-20 08:25:00,
2013-01-20 02:35:00,22.0,15.0,30.39,NE,47,6.0,8.0,74,0.00,,,0.00,Wunderground v.1.15,2013-01-20 08:35:00,
2013-01-20 02:40:00,22.0,15.0,30.40,NE,34,5.0,5.0,74,0.00,,,0.00,Wunderground v.1.15,2013-01-20 08:40:00,
2013-01-20 02:45:00,21.8,14.8,30.40,NE,42,5.0,5.0,74,0.00,,,0.00,Wunderground v.1.15,2013-01-20 08:45:00,
2013-01-20 02:50:00,21.8,15.1,30.40,NE,44,5.0,5.0,75,0.00,,,0.00,Wunderground v.1.15,2013-01-20 08:50:00,
2013-01-20 02:55:00,21.7,15.0,30.40,NE,44,5.0,5.0,75,0.00,,,0.00,Wunderground v.1.15,2013-01-20 08:55:00,
2013-01-20 03:00:00,21.6,15.5,30.40,NE,44,4.0,4.0,77,0.00,,,0.00,Wunderground v.1.15,2013-01-20 09:00:00,
2013-01-20 03:10:00,21.5,15.7,30.40,NE,44,4.0,4.0,78,0.00,,,0.00,Wunderground v.1.15,2013-01-20 09:10:00,
2013-01-20 03:15:00,21.4,15.6,30.40,NE,44,3.0,5.0,78,0.00,,,0.00,Wunderground v.1.15,2013-01-20 09:15:00,
2013-01-20 03:20:00,21.3,14.3,30.40,NE,42,4.0,4.0,74,0.00,,,0.00,Wunderground v.1.15,2013-01-20 09:20:00,
2013-01-20 03:25:00,21.2,13.9,30.40,NNE,33,4.0,4.0,73,0.00,,,0.00,Wunderground v.1.15,2013-01-20 09:25:00,
2013-01-20 03:30:00,21.2,13.6,30.40,NNE,27,4.0,4.0,72,0.00,,,0.00,Wunderground v.1.15,2013-01-20 09:30:00,
2013-01-20 03:39:00,21.1,13.8,30.39,NNE,27,3.0,4.0,73,0.00,,,0.00,Wunderground v.1.15,2013-01-20 09:39:00,
2013-01-20 03:44:00,21.1,14.4,30.40,NNE,27,4.0,4.0,75,0.00,,,0.00,Wunderground v.1.15,2013-01-20 09:44:00,
2013-01-20 03:49:00,21.2,14.8,30.40,NNE,27,3.0,4.0,76,0.00,,,0.00,Wunderground v.1.15,2013-01-20 09:49:00,
2013-01-20 03:54:00,21.2,15.1,30.39,NNE,27,3.0,4.0,77,0.00,,,0.00,Wunderground v.1.15,2013-01-20 09:54:00,
2013-01-20 03:59:00,21.2,15.1,30.40,NNE,27,3.0,3.0,77,0.00,,,0.00,Wunderground v.1.15,2013-01-20 09:59:00,
2013-01-20 04:04:00,21.0,14.9,30.40,NNE,28,3.0,4.0,77,0.00,,,0.00,Wunderground v.1.15,2013-01-20 10:04:00,
2013-01-20 04:14:00,20.8,14.7,30.39,NE,46,5.0,5.0,77,0.00,,,0.00,Wunderground v.1.15,2013-01-20 10:14:00,
2013-01-20 04:19:00,20.8,14.7,30.39,NE,46,4.0,5.0,77,0.00,,,0.00,Wunderground v.1.15,2013-01-20 10:19:00,
2013-01-20 04:24:00,20.7,14.6,30.39,NE,48,5.0,5.0,77,0.00,,,0.00,Wunderground v.1.15,2013-01-20 10:24:00,
2013-01-20 04:29:00,20.6,14.5,30.38,NE,48,4.0,4.0,77,0.00,,,0.00,Wunderground v.1.15,2013-01-20 10:29:00,
2013-01-20 04:34:00,20.5,14.4,30.38,NE,48,3.0,4.0,77,0.00,,,0.00,Wunderground v.1.15,2013-01-20 10:34:00,
2013-01-20 04:40:00,20.4,14.3,30.38,NE,48,3.0,4.0,77,0.00,,,0.00,Wunderground v.1.15,2013-01-20 10:40:00,
2013-01-20 04:45:00,20.3,14.2,30.38,NE,48,3.0,4.0,77,0.00,,,0.00,Wunderground v.1.15,2013-01-20 10:45:00,
2013-01-20 04:50:00,20.2,14.1,30.38,NE,48,3.0,3.0,77,0.00,,,0.00,Wunderground v.1.15,2013-01-20 10:50:00,
2013-01-20 04:55:00,20.1,14.0,30.38,NE,54,3.0,4.0,77,0.00,,,0.00,Wunderground v.1.15,2013-01-20 10:55:00,
2013-01-20 05:00:00,20.0,13.6,30.37,NE,54,3.0,4.0,76,0.00,,,0.00,Wunderground v.1.15,2013-01-20 11:00:00,
2013-01-20 05:05:00,19.9,13.3,30.37,NE,54,3.0,4.0,75,0.00,,,0.00,Wunderground v.1.15,2013-01-20 11:05:00,
2013-01-20 05:15:00,19.8,13.5,30.38,NE,54,3.0,4.0,76,0.00,,,0.00,Wunderground v.1.15,2013-01-20 11:15:00,
2013-01-20 05:20:00,19.7,13.7,30.37,NE,54,3.0,4.0,77,0.00,,,0.00,Wunderground v.1.15,2013-01-20 11:20:00,
2013-01-20 05:25:00,19.5,13.5,30.38,NE,54,4.0,4.0,77,0.00,,,0.00,Wunderground v.1.15,2013-01-20 11:25:00,
2013-01-20 05:30:00,19.4,13.4,30.37,NE,54,5.0,5.0,77,0.00,,,0.00,Wunderground v.1.15,2013-01-20 11:30:00,
2013-01-20 05:35:00,19.3,13.3,30.37,NE,54,4.0,5.0,77,0.00,,,0.00,Wunderground v.1.15,2013-01-20 11:35:00,
2013-01-20 05:40:00,19.1,13.1,30.37,NE,54,4.0,4.0,77,0.00,,,0.00,Wunderground v.1.15,2013-01-20 11:40:00,
2013-01-20 05:50:00,19.1,13.4,30.37,NE,54,4.0,4.0,78,0.00,,,0.00,Wunderground v.1.15,2013-01-20 11:50:00,
2013-01-20 05:55:00,19.1,13.9,30.37,NE,54,4.0,4.0,80,0.00,,,0.00,Wunderground v.1.15,2013-01-20 11:55:00,
2013-01-20 06:00:00,19.0,13.8,30.37,NE,54,3.0,5.0,80,0.00,,,0.00,Wunderground v.1.15,2013-01-20 12:00:00,
2013-01-20 06:05:00,18.9,13.7,30.37,NE,54,4.0,5.0,80,0.00,,,0.00,Wunderground v.1.15,2013-01-20 12:05:00,
2013-01-20 06:10:00,18.9,13.5,30.37,NE,54,4.0,5.0,79,0.00,,,0.00,Wunderground v.1.15,2013-01-20 12:10:00,
2013-01-20 06:20:00,18.6,12.9,30.36,NE,54,4.0,5.0,78,0.00,,,0.00,Wunderground v.1.15,2013-01-20 12:20:00,
2013-01-20 06:25:00,18.6,12.9,30.35,NE,54,5.0,5.0,78,0.00,,,0.00,Wunderground v.1.15,2013-01-20 12:25:00,
2013-01-20 06:30:00,18.6,12.9,30.35,NE,54,5.0,5.0,78,0.00,,,0.00,Wunderground v.1.15,2013-01-20 12:30:00,
2013-01-20 06:35:00,18.6,12.9,30.36,NE,54,4.0,5.0,78,0.00,,,0.00,Wunderground v.1.15,2013-01-20 12:35:00,
2013-01-20 06:40:00,18.5,13.1,30.35,NE,54,4.0,4.0,79,0.00,,,0.00,Wunderground v.1.15,2013-01-20 12:40:00,
2013-01-20 06:45:00,18.5,13.1,30.36,NE,54,4.0,4.0,79,0.00,,,0.00,Wunderground v.1.15,2013-01-20 12:45:00,
2013-01-20 06:55:00,18.5,13.6,30.36,ENE,68,3.0,4.0,81,0.00,,,0.00,Wunderground v.1.15,2013-01-20 12:55:00,
2013-01-20 07:00:00,18.5,13.9,30.36,ENE,73,3.0,3.0,82,0.00,,,0.00,Wunderground v.1.15,2013-01-20 13:00:00,
2013-01-20 07:05:00,18.4,13.5,30.36,ENE,74,3.0,4.0,81,0.00,,,0.00,Wunderground v.1.15,2013-01-20 13:05:00,
2013-01-20 07:10:00,18.2,13.1,30.36,ENE,74,3.0,5.0,80,0.00,,,0.00,Wunderground v.1.15,2013-01-20 13:10:00,
2013-01-20 07:15:00,18.1,12.7,30.36,ENE,74,3.0,5.0,79,0.00,,,0.00,Wunderground v.1.15,2013-01-20 13:15:00,
2013-01-20 07:24:00,18.1,12.4,30.37,ENE,74,2.0,4.0,78,0.00,,,0.00,Wunderground v.1.15,2013-01-20 13:24:00,
2013-01-20 07:29:00,18.1,12.4,30.38,ENE,74,2.0,2.0,78,0.00,,,0.00,Wunderground v.1.15,2013-01-20 13:29:00,
2013-01-20 07:35:00,18.1,12.4,30.38,ENE,74,1.0,4.0,78,0.00,,,0.00,Wunderground v.1.15,2013-01-20 13:35:00,
2013-01-20 07:40:00,18.0,12.3,30.39,ENE,74,1.0,4.0,78,0.00,,,0.00,Wunderground v.1.15,2013-01-20 13:40:00,
2013-01-20 07:45:00,18.0,12.3,30.39,ENE,74,1.0,4.0,78,0.00,,,0.00,Wunderground v.1.15,2013-01-20 13:45:00,
2013-01-20 07:50:00,17.9,12.5,30.39,ENE,74,1.0,4.0,79,0.00,,,0.00,Wunderground v.1.15,2013-01-20 13:50:00,
2013-01-20 07:59:00,17.8,12.4,30.39,ENE,74,1.0,1.0,79,0.00,,,0.00,Wunderground v.1.15,2013-01-20 13:59:00,
2013-01-20 08:04:00,17.9,12.5,30.39,ENE,74,1.0,2.0,79,0.00,,,0.00,Wunderground v.1.15,2013-01-20 14:04:00,
2013-01-20 08:09:00,18.1,13.0,30.39,ENE,74,1.0,1.0,80,0.00,,,0.00,Wunderground v.1.15,2013-01-20 14:09:00,
2013-01-20 08:15:00,18.3,13.2,30.40,ENE,74,1.0,4.0,80,0.00,,,0.00,Wunderground v.1.15,2013-01-20 14:15:00,
2013-01-20 08:20:00,18.5,13.4,30.39,ENE,74,1.0,1.0,80,0.00,,,0.00,Wunderground v.1.15,2013-01-20 14:20:00,
2013-01-20 08:29:00,18.5,13.4,30.40,ENE,74,2.0,2.0,80,0.00,,,0.00,Wunderground v.1.15,2013-01-20 14:29:00,
2013-01-20 08:34:00,18.6,13.5,30.40,ENE,74,1.0,4.0,80,0.00,,,0.00,Wunderground v.1.15,2013-01-20 14:34:00,
2013-01-20 08:39:00,18.8,13.4,30.40,ENE,74,1.0,4.0,79,0.00,,,0.00,Wunderground v.1.15,2013-01-20 14:39:00,
2013-01-20 08:44:00,18.9,13.5,30.40,ENE,74,1.0,4.0,79,0.00,,,0.00,Wunderground v.1.15,2013-01-20 14:44:00,
2013-01-20 08:49:00,19.0,13.8,30.40,ENE,74,2.0,4.0,80,0.00,,,0.00,Wunderground v.1.15,2013-01-20 14:49:00,
2013-01-20 08:54:00,19.3,14.4,30.41,ENE,74,2.0,4.0,81,0.00,,,0.00,Wunderground v.1.15,2013-01-20 14:54:00,
2013-01-20 09:04:00,19.8,14.3,30.42,ENE,74,1.0,4.0,79,0.00,,,0.00,Wunderground v.1.15,2013-01-20 15:04:00,
2013-01-20 09:09:00,19.9,14.4,30.43,ENE,74,1.0,4.0,79,0.00,,,0.00,Wunderground v.1.15,2013-01-20 15:09:00,
2013-01-20 09:14:00,20.0,14.5,30.43,ENE,74,2.0,4.0,79,0.00,,,0.00,Wunderground v.1.15,2013-01-20 15:14:00,
2013-01-20 09:19:00,19.9,14.4,30.43,ENE,74,2.0,4.0,79,0.00,,,0.00,Wunderground v.1.15,2013-01-20 15:19:00,
2013-01-20 09:24:00,19.8,14.0,30.42,ENE,74,3.0,4.0,78,0.00,,,0.00,Wunderground v.1.15,2013-01-20 15:24:00,
2013-01-20 09:34:00,20.2,14.7,30.43,ENE,73,2.0,4.0,79,0.00,,,0.00,Wunderground v.1.15,2013-01-20 15:34:00,
2013-01-20 09:39:00,20.1,14.3,30.42,ENE,73,3.0,3.0,78,0.00,,,0.00,Wunderground v.1.15,2013-01-20 15:39:00,
2013-01-20 09:44:00,20.2,14.4,30.44,ENE,73,3.0,4.0,78,0.00,,,0.00,Wunderground v.1.15,2013-01-20 15:44:00,
2013-01-20 09:49:00,20.2,14.4,30.43,ENE,72,3.0,5.0,78,0.00,,,0.00,Wunderground v.1.15,2013-01-20 15:49:00,
2013-01-20 09:54:00,20.3,14.5,30.44,ENE,69,3.0,5.0,78,0.00,,,0.00,Wunderground v.1.15,2013-01-20 15:54:00,
2013-01-20 09:59:00,20.3,14.5,30.43,ENE,65,3.0,3.0,78,0.00,,,0.00,Wunderground v.1.15,2013-01-20 15:59:00,
2013-01-20 10:05:00,20.4,14.6,30.43,ENE,65,3.0,5.0,78,0.00,,,0.00,Wunderground v.1.15,2013-01-20 16:05:00,
2013-01-20 10:10:00,20.2,14.4,30.44,ENE,64,4.0,4.0,78,0.00,,,0.00,Wunderground v.1.15,2013-01-20 16:10:00,
2013-01-20 10:15:00,20.4,14.9,30.44,ENE,64,4.0,4.0,79,0.00,,,0.00,Wunderground v.1.15,2013-01-20 16:15:00,
2013-01-20 10:20:00,20.8,15.3,30.44,ENE,64,3.0,4.0,79,0.00,,,0.00,Wunderground v.1.15,2013-01-20 16:20:00,
2013-01-20 10:25:00,20.9,15.4,30.45,NE,54,3.0,4.0,79,0.00,,,0.00,Wunderground v.1.15,2013-01-20 16:25:00,
2013-01-20 10:35:00,21.1,15.0,30.44,NE,54,4.0,5.0,77,0.00,,,0.00,Wunderground v.1.15,2013-01-20 16:35:00,
2013-01-20 10:40:00,21.2,14.8,30.45,NE,55,4.0,4.0,76,0.00,,,0.00,Wunderground v.1.15,2013-01-20 16:40:00,
2013-01-20 10:45:00,21.2,14.8,30.47,NE,38,4.0,4.0,76,0.00,,,0.00,Wunderground v.1.15,2013-01-20 16:45:00,
2013-01-20 10:50:00,21.5,15.1,30.47,NNE,28,4.0,6.0,76,0.00,,,0.00,Wunderground v.1.15,2013-01-20 16:50:00,
2013-01-20 10:55:00,21.5,14.5,30.47,NNE,18,4.0,6.0,74,0.00,,,0.00,Wunderground v.1.15,2013-01-20 16:55:00,
2013-01-20 11:00:00,21.5,14.2,30.48,NNE,28,5.0,5.0,73,0.00,,,0.00,Wunderground v.1.15,2013-01-20 17:00:00,
2013-01-20 11:10:00,21.5,14.2,30.48,NNE,28,5.0,5.0,73,0.00,,,0.00,Wunderground v.1.15,2013-01-20 17:10:00,
2013-01-20 11:15:00,21.6,14.3,30.49,NNE,30,5.0,5.0,73,0.00,,,0.00,Wunderground v.1.15,2013-01-20 17:15:00,
2013-01-20 11:20:00,21.9,14.9,30.48,NNE,30,4.0,4.0,74,0.00,,,0.00,Wunderground v.1.15,2013-01-20 17:20:00,
2013-01-20 11:25:00,22.0,14.3,30.48,NE,40,4.0,5.0,72,0.00,,,0.00,Wunderground v.1.15,2013-01-20 17:25:00,
2013-01-20 11:30:00,21.9,14.3,30.48,NNE,30,5.0,5.0,72,0.00,,,0.00,Wunderground v.1.15,2013-01-20 17:30:00,
2013-01-20 11:35:00,22.1,14.1,30.48,NNE,29,5.0,5.0,71,0.00,,,0.00,Wunderground v.1.15,2013-01-20 17:35:00,
2013-01-20 11:45:00,21.9,14.6,30.48,NNE,26,6.0,6.0,73,0.00,,,0.00,Wunderground v.1.15,2013-01-20 17:45:00,
2013-01-20 11:50:00,21.7,14.1,30.48,NNE,19,6.0,6.0,72,0.00,,,0.00,Wunderground v.1.15,2013-01-20 17:50:00,
2013-01-20 11:55:00,22.0,14.7,30.48,NE,38,6.0,6.0,73,0.00,,,0.00,Wunderground v.1.15,2013-01-20 17:55:00,
2013-01-20 12:00:00,22.1,15.1,30.48,NNE,27,6.0,8.0,74,0.00,,,0.00,Wunderground v.1.15,2013-01-20 18:00:00,
2013-01-20 12:05:00,22.0,14.3,30.48,NE,50,6.0,8.0,72,0.00,,,0.00,Wunderground v.1.15,2013-01-20 18:05:00,
2013-01-20 12:15:00,22.3,14.6,30.48,NE,46,6.0,6.0,72,0.00,,,0.00,Wunderground v.1.15,2013-01-20 18:15:00,
2013-01-20 12:20:00,22.3,14.6,30.47,NE,36,5.0,5.0,72,0.00,,,0.00,Wunderground v.1.15,2013-01-20 18:20:00,
2013-01-20 12:25:00,22.4,15.1,30.48,NNE,19,6.0,7.0,73,0.00,,,0.00,Wunderground v.1.15,2013-01-20 18:25:00,
2013-01-20 12:30:00,22.5,14.5,30.48,NNE,28,6.0,8.0,71,0.00,,,0.00,Wunderground v.1.15,2013-01-20 18:30:00,
2013-01-20 12:35:00,22.4,15.1,30.47,NNE,24,6.0,9.0,73,0.00,,,0.00,Wunderground v.1.15,2013-01-20 18:35:00,
2013-01-20 12:40:00,22.5,15.1,30.47,NNE,30,6.0,10.0,73,0.00,,,0.00,Wunderground v.1.15,2013-01-20 18:40:00,
2013-01-20 12:49:00,22.4,15.4,30.48,NNE,27,7.0,7.0,74,0.00,,,0.00,Wunderground v.1.15,2013-01-20 18:49:00,
2013-01-20 12:54:00,22.8,16.1,30.47,NNE,22,6.0,7.0,75,0.00,,,0.00,Wunderground v.1.15,2013-01-20 18:54:00,
2013-01-20 12:59:00,22.8,16.4,30.47,NNW,340,6.0,6.0,76,0.00,,,0.00,Wunderground v.1.15,2013-01-20 18:59:00,
2013-01-20 13:04:00,23.1,16.7,30.47,North,351,6.0,6.0,76,0.00,,,0.00,Wunderground v.1.15,2013-01-20 19:04:00,
2013-01-20 13:09:00,23.1,16.0,30.47,North,5,6.0,7.0,74,0.00,,,0.00,Wunderground v.1.15,2013-01-20 19:09:00,
2013-01-20 13:19:00,22.9,15.8,30.46,NNE,19,8.0,8.0,74,0.00,,,0.00,Wunderground v.1.15,2013-01-20 19:19:00,
2013-01-20 13:24:00,23.0,15.9,30.46,NNE,32,7.0,8.0,74,0.00,,,0.00,Wunderground v.1.15,2013-01-20 19:24:00,
2013-01-20 13:29:00,23.1,16.0,30.46,NNE,30,7.0,9.0,74,0.00,,,0.00,Wunderground v.1.15,2013-01-20 19:29:00,
2013-01-20 13:34:00,23.1,15.7,30.46,NNE,31,8.0,9.0,73,0.00,,,0.00,Wunderground v.1.15,2013-01-20 19:34:00,